Voltar ao catálogo

QIANFAN-204

AtivoComunicaçõesPO
NORAD 69803·PAYLOAD·🇨🇳 China

Lançado Jul 4, 2026 de Taiyuan Satellite Launch Center

Loading…

Próximas Passagens (próximas 24 horas)

TLE

AtualizadoSource: Space-Track

Época: Sep 14, 2026, 11:57 UTC

1 69803U 26153D   26257.49801105 -.01873025  00000-0 -12730+1 0  9994
2 69803  88.9973 352.1193 0010862 340.5893  19.4873 14.03843148 10217

Acompanhe QIANFAN-204 em tempo real com AllMySat

Download on the App Store